Regional Weather Roundup
Issued by NWS Albany, NY

Home | Current Version | Previous Version | Text Only | Print | Product List | Glossary On
Versions: 1 2 3 4 5 6 7 8 9 10 11 12 13 14 15 16 17 18 19 20 21 22 23 24 25 26 27 28 29 30 31 32 33 34 35 36 37 38 39 40 41 42 43 44 45 46 47 48 49 50
000
ASUS41 KALY 021710
RWRALY

NEW YORK STATE HOURLY WEATHER ROUNDUP
NATIONAL WEATHER SERVICE ALBANY NY
100 PM EDT SUN AUG 02 2015

NOTE: "FAIR" INDICATES FEW OR NO CLOUDS BELOW 12,000 FEET WITH NO
SIGNIFICANT WEATHER AND/OR NO OBSTRUCTIONS TO VISIBILITY.

NYZ032-033-038>043-046>054-057>066-NYZ062>081-021800-
EAST


CITY           SKY/WX    TMP DP  RH WIND       PRES   REMARKS
ALBANY         PTSUNNY   83  58  42 S9        29.88F
GLENS FALLS    MOSUNNY   78  61  55 S12       29.87F
POUGHKEEPSIE   MOSUNNY   85  53  33 SW8       29.90F
NEWBURGH       MOSUNNY   84  55  37 S7        29.93F
MONTGOMERY     PTSUNNY   84  57  39 W3G20     29.91F
WHITE PLAINS   MOSUNNY   84  50  30 SW5       29.92F
ISLIP          MOSUNNY   83  56  39 S12       29.92S
NEW YORK CITY  PTSUNNY   87  50  27 S9G17     29.91F
CENTRAL PARK   SUNNY     88  54  31 MISG      29.94F
$$

NYZ005>009-017-018-044>046-055-056-021800-
CENTRAL


CITY           SKY/WX    TMP DP  RH WIND       PRES   REMARKS
FULTON         SUNNY     81  61  50 SW9G16    29.85F
SYRACUSE       PTSUNNY   82  59  45 W14       29.84F
ROME           SUNNY     79  58  48 VRB3      29.87F
ELMIRA         MOSUNNY   82  55  39 SW12      29.88F
BINGHAMTON     PTSUNNY   76  54  46 W13       29.93F
MONTICELLO     MOSUNNY   79  57  47 MISG      29.96F
$$

NYZ026>034-041>043-021800-
NORTH


CITY           SKY/WX    TMP DP  RH WIND       PRES   REMARKS
WATERTOWN      SUNNY     79  56  45 S10G16    29.83S
FORT DRUM      NOT AVBL
MASSENA        PTSUNNY   78  61  55 SW12G18   29.81F
SARANAC LAKE   MOSUNNY   74  53  48 SW7       29.87F
PLATTSBURGH    MOSUNNY   75  61  61 SE15      29.82F
$$

NYZ001>004-010>016-019>021-021800-
WEST


CITY           SKY/WX    TMP DP  RH WIND       PRES   REMARKS
NIAGARA FALLS  MOSUNNY   79  55  43 SW14G23   29.84S
BUFFALO        MOSUNNY   78  56  46 SW17G23   29.86S
DUNKIRK        SUNNY     80  53  39 SW12G21   29.89R
JAMESTOWN      SUNNY     75  52  43 W8        29.95S
WELLSVILLE     MOSUNNY   76  52  43 W10       29.96F
ROCHESTER      MOSUNNY   81  56  42 W13G22    29.86R
PENN YAN       MOSUNNY   78  54  43 VRB5      29.89F
$$

             KEY
       WCI = WIND CHILL INDEX
       VSB = VISIBILITY
       HX  = HEAT INDEX
$$


USA.gov is the U.S. government's official web portal to all federal, state and local government web resources and services.